| time (UTC) | temp C | wind direction | speed KPH | gust KPH | rain 1hr cm | rain 24hr cm | rain mn cm | humidity % | barometer mb |
| 20260506161015 | 17 | 150 | 3.2 | 4.8 | 0.00 | 0.18 | 0.18 | 94 | 1013.0 |
| 20260506160513 | 17 | 150 | 3.2 | 4.8 | 0.05 | 0.18 | 0.18 | 93 | 1013.0 |
| 20260506160010 | 17 | 119 | 0.0 | 3.2 | 0.05 | 0.18 | 0.18 | 93 | 1012.8 |
| 20260506155508 | 17 | 155 | 1.6 | 3.2 | 0.00 | 0.15 | 0.15 | 93 | 1013.1 |
| 20260506153640 | 17 | 115 | 1.6 | 3.2 | 0.00 | 0.15 | 0.15 | 92 | 1013.1 |
| 20260506153137 | 17 | 154 | 3.2 | 3.2 | 0.00 | 0.15 | 0.15 | 93 | 1012.9 |
| 20260506152634 | 17 | 103 | 1.6 | 3.2 | 0.00 | 0.15 | 0.15 | 93 | 1013.4 |
| 20260506152132 | 17 | 170 | 1.6 | 3.2 | 0.00 | 0.15 | 0.15 | 93 | 1013.4 |
| 20260506151630 | 16 | 123 | 3.2 | 3.2 | 0.00 | 0.15 | 0.15 | 93 | 1013.4 |
| 20260506151127 | 16 | 137 | 3.2 | 3.2 | 0.00 | 0.15 | 0.15 | 94 | 1013.5 |
| 20260506150624 | 16 | 147 | 3.2 | 3.2 | 0.00 | 0.15 | 0.15 | 94 | 1013.5 |
| 20260506150120 | 16 | 154 | 1.6 | 3.2 | 0.00 | 0.15 | 0.15 | 94 | 1013.7 |
| 20260506145618 | 16 | 148 | 3.2 | 3.2 | 0.00 | 0.15 | 0.15 | 95 | 1013.6 |
| 20260506145114 | 16 | 151 | 3.2 | 3.2 | 0.00 | 0.15 | 0.15 | 95 | 1013.5 |
| 20260506144611 | 16 | 145 | 1.6 | 3.2 | 0.05 | 0.15 | 0.15 | 95 | 1013.5 |
| 20260506144108 | 16 | 135 | 1.6 | 3.2 | 0.05 | 0.15 | 0.15 | 95 | 1013.6 |
| 20260506143606 | 16 | 137 | 3.2 | 3.2 | 0.05 | 0.15 | 0.15 | 94 | 1013.6 |
| 20260506143104 | 16 | 145 | 3.2 | 3.2 | 0.13 | 0.15 | 0.15 | 93 | 1013.7 |
| 20260506142602 | 16 | 129 | 1.6 | 3.2 | 0.23 | 0.15 | 0.15 | 93 | 1013.6 |
| 20260506142100 | 16 | 161 | 1.6 | 4.8 | 0.30 | 0.13 | 0.13 | 92 | 1013.8 |
| 20260506141557 | 16 | 139 | 3.2 | 3.2 | 0.43 | 0.10 | 0.10 | 91 | 1013.8 |
| 20260506141055 | 16 | 157 | 3.2 | 3.2 | 0.23 | 0.05 | 0.05 | 89 | 1013.8 |
| 20260506140552 | 17 | 151 | 1.6 | 3.2 | 0.05 | 0.03 | 0.03 | 88 | 1013.9 |
| 20260506140050 | 17 | 128 | 3.2 | 3.2 | 0.05 | 0.03 | 0.03 | 87 | 1014.0 |
| 20260506135546 | 17 | 91 | 3.2 | 3.2 | 0.05 | 0.03 | 0.03 | 85 | 1013.8 |
| 20260506135042 | 17 | 138 | 3.2 | 3.2 | 0.05 | 0.00 | 0.00 | 83 | 1013.9 |
| 20260506134539 | 17 | 119 | 1.6 | 3.2 | 0.05 | 0.00 | 0.00 | 79 | 1014.0 |
| 20260506134035 | 18 | 119 | 3.2 | 3.2 | 0.00 | 0.00 | 0.00 | 78 | 1013.7 |
| 20260506133532 | 18 | 185 | 0.0 | 4.8 | 0.00 | 0.00 | 0.00 | 75 | 1013.7 |
| 20260506133029 | 18 | 136 | 3.2 | 3.2 | 0.00 | 0.00 | 0.00 | 74 | 1013.7 |
| 20260506132526 | 18 | 146 | 0.0 | 3.2 | 0.00 | 0.00 | 0.00 | 75 | 1013.6 |
| 20260506132024 | 18 | 119 | 3.2 | 3.2 | 0.00 | 0.00 | 0.00 | 73 | 1013.6 |
| 20260506131521 | 18 | 159 | 3.2 | 3.2 | 0.00 | 0.00 | 0.00 | 73 | 1013.4 |
| 20260506131017 | 18 | 107 | 0.0 | 4.8 | 0.00 | 0.00 | 0.00 | 73 | 1013.6 |
| 20260506130514 | 18 | 100 | 3.2 | 4.8 | 0.00 | 0.00 | 0.00 | 73 | 1013.6 |
| 20260506130012 | 18 | 168 | 0.0 | 4.8 | 0.00 | 0.00 | 0.00 | 72 | 1013.7 |
| 20260506125510 | 18 | 94 | 3.2 | 3.2 | 0.00 | 0.00 | 0.00 | 73 | 1013.3 |
| 20260506125007 | 18 | 112 | 3.2 | 3.2 | 0.00 | 0.00 | 0.00 | 73 | 1013.8 |
| 20260506124505 | 18 | 95 | 3.2 | 4.8 | 0.00 | 0.00 | 0.00 | 74 | 1013.5 |
| 20260506124003 | 18 | 114 | 0.0 | 3.2 | 0.00 | 0.00 | 0.00 | 74 | 1013.7 |
| 20260506123500 | 17 | 126 | 1.6 | 3.2 | 0.00 | 0.00 | 0.00 | 74 | 1013.4 |
| 20260506122958 | 17 | 138 | 3.2 | 4.8 | 0.00 | 0.00 | 0.00 | 75 | 1013.6 |
| 20260506122454 | 17 | 124 | 1.6 | 3.2 | 0.00 | 0.00 | 0.00 | 75 | 1013.3 |
| 20260506121953 | 17 | 132 | 1.6 | 6.4 | 0.00 | 0.00 | 0.00 | 75 | 1013.2 |
| 20260506121450 | 17 | 149 | 3.2 | 4.8 | 0.00 | 0.00 | 0.00 | 74 | 1013.5 |
| 20260506120946 | 18 | 91 | 3.2 | 4.8 | 0.00 | 0.00 | 0.00 | 74 | 1013.4 |
| 20260506120444 | 18 | 105 | 1.6 | 4.8 | 0.00 | 0.00 | 0.00 | 74 | 1013.3 |
| 20260506115941 | 18 | 160 | 3.2 | 3.2 | 0.00 | 0.00 | 0.00 | 74 | 1013.4 |
| 20260506115439 | 18 | 152 | 1.6 | 4.8 | 0.00 | 0.00 | 0.00 | 73 | 1013.5 |
| 20260506114937 | 18 | 132 | 1.6 | 4.8 | 0.00 | 0.00 | 0.00 | 73 | 1013.3 |
| 20260506114434 | 18 | 134 | 0.0 | 3.2 | 0.00 | 0.00 | 0.00 | 73 | 1013.5 |
| 20260506113933 | 18 | 126 | 3.2 | 3.2 | 0.00 | 0.00 | 0.00 | 73 | 1013.2 |
| 20260506113430 | 18 | 118 | 1.6 | 3.2 | 0.00 | 0.00 | 0.00 | 73 | 1013.2 |
| 20260506112926 | 17 | 14 | 1.6 | 4.8 | 0.00 | 0.00 | 0.00 | 73 | 1013.5 |
| 20260506112424 | 17 | 113 | 3.2 | 3.2 | 0.00 | 0.00 | 0.00 | 74 | 1013.3 |
| 20260506111921 | 17 | 140 | 3.2 | 4.8 | 0.00 | 0.00 | 0.00 | 73 | 1013.4 |
| 20260506111419 | 17 | 149 | 3.2 | 4.8 | 0.00 | 0.00 | 0.00 | 74 | 1013.5 |
| 20260506110916 | 17 | 146 | 1.6 | 4.8 | 0.00 | 0.00 | 0.00 | 73 | 1013.2 |
| 20260506110414 | 17 | 142 | 1.6 | 3.2 | 0.00 | 0.00 | 0.00 | 73 | 1013.2 |
| 20260506105910 | 17 | 146 | 3.2 | 4.8 | 0.00 | 0.00 | 0.00 | 73 | 1013.2 |
| 20260506105406 | 17 | 138 | 0.0 | 3.2 | 0.00 | 0.00 | 0.00 | 73 | 1013.2 |
| 20260506104904 | 17 | 115 | 1.6 | 3.2 | 0.00 | 0.00 | 0.00 | 73 | 1013.3 |
| 20260506104402 | 17 | 141 | 3.2 | 3.2 | 0.00 | 0.00 | 0.00 | 73 | 1013.2 |
| 20260506103900 | 17 | 141 | 1.6 | 4.8 | 0.00 | 0.00 | 0.00 | 72 | 1013.3 |
| 20260506103357 | 17 | 62 | 0.0 | 4.8 | 0.00 | 0.00 | 0.00 | 72 | 1013.5 |
| 20260506102854 | 17 | 187 | 1.6 | 3.2 | 0.00 | 0.00 | 0.00 | 73 | 1013.4 |
| 20260506102352 | 17 | 129 | 1.6 | 3.2 | 0.00 | 0.00 | 0.00 | 74 | 1013.6 |
| 20260506101848 | 17 | 83 | 1.6 | 4.8 | 0.00 | 0.00 | 0.00 | 73 | 1013.7 |
| 20260506101345 | 17 | 91 | 3.2 | 6.4 | 0.00 | 0.00 | 0.00 | 74 | 1013.6 |
| 20260506100843 | 17 | 152 | 3.2 | 3.2 | 0.00 | 0.00 | 0.00 | 73 | 1013.4 |
| 20260506100341 | 17 | 145 | 1.6 | 3.2 | 0.00 | 0.00 | 0.00 | 73 | 1013.4 |
| 20260506095839 | 17 | 243 | 4.8 | 4.8 | 0.00 | 0.00 | 0.00 | 73 | 1013.4 |
| 20260506095336 | 17 | 68 | 3.2 | 4.8 | 0.00 | 0.00 | 0.00 | 73 | 1013.5 |
| 20260506094832 | 17 | 94 | 3.2 | 3.2 | 0.00 | 0.00 | 0.00 | 74 | 1013.2 |
| 20260506094331 | 17 | 119 | 3.2 | 3.2 | 0.00 | 0.00 | 0.00 | 74 | 1013.1 |
| 20260506093829 | 17 | 134 | 1.6 | 4.8 | 0.00 | 0.00 | 0.00 | 74 | 1013.1 |
| 20260506093326 | 17 | 146 | 1.6 | 3.2 | 0.00 | 0.00 | 0.00 | 73 | 1013.3 |
| 20260506092824 | 17 | 124 | 3.2 | 4.8 | 0.00 | 0.00 | 0.00 | 73 | 1013.1 |
| 20260506092321 | 17 | 115 | 3.2 | 3.2 | 0.00 | 0.00 | 0.00 | 74 | 1013.0 |
| 20260506091818 | 17 | 140 | 3.2 | 3.2 | 0.00 | 0.00 | 0.00 | 74 | 1012.8 |
| 20260506091316 | 17 | 110 | 3.2 | 3.2 | 0.00 | 0.00 | 0.00 | 74 | 1013.2 |
| 20260506090813 | 17 | 53 | 3.2 | 3.2 | 0.00 | 0.00 | 0.00 | 73 | 1013.3 |
| 20260506090310 | 17 | 147 | 0.0 | 4.8 | 0.00 | 0.00 | 0.00 | 74 | 1013.1 |
| 20260506085807 | 17 | 127 | 1.6 | 3.2 | 0.00 | 0.00 | 0.00 | 74 | 1013.2 |
| 20260506085305 | 17 | 148 | 3.2 | 3.2 | 0.00 | 0.00 | 0.00 | 74 | 1013.4 |
| 20260506084800 | 17 | 154 | 3.2 | 4.8 | 0.00 | 0.00 | 0.00 | 74 | 1013.1 |
| 20260506084256 | 17 | 132 | 3.2 | 3.2 | 0.00 | 0.00 | 0.00 | 74 | 1013.3 |
| 20260506083753 | 17 | 118 | 1.6 | 3.2 | 0.00 | 0.00 | 0.00 | 74 | 1013.4 |
| 20260506083251 | 17 | 180 | 1.6 | 4.8 | 0.00 | 0.00 | 0.00 | 74 | 1013.6 |
| 20260506082748 | 17 | 106 | 3.2 | 3.2 | 0.00 | 0.00 | 0.00 | 73 | 1013.7 |
| 20260506082243 | 17 | 114 | 3.2 | 4.8 | 0.00 | 0.00 | 0.00 | 73 | 1013.6 |
| 20260506081741 | 17 | 129 | 3.2 | 3.2 | 0.00 | 0.00 | 0.00 | 73 | 1013.6 |
| 20260506081239 | 17 | 123 | 3.2 | 4.8 | 0.00 | 0.00 | 0.00 | 73 | 1013.6 |
| 20260506080737 | 17 | 128 | 1.6 | 3.2 | 0.00 | 0.00 | 0.00 | 73 | 1013.5 |
| 20260506080233 | 17 | 143 | 3.2 | 4.8 | 0.00 | 0.00 | 0.00 | 73 | 1013.5 |
| 20260506073217 | 18 | 108 | 1.6 | 3.2 | 0.00 | 0.00 | 0.00 | 71 | 1013.7 |
| 20260506072714 | 18 | 167 | 3.2 | 3.2 | 0.00 | 0.00 | 0.00 | 70 | 1013.6 |
| 20260506072211 | 18 | 185 | 1.6 | 4.8 | 0.00 | 0.00 | 0.00 | 70 | 1013.6 |
| 20260506071708 | 18 | 156 | 0.0 | 3.2 | 0.00 | 0.00 | 0.00 | 69 | 1013.7 |
| 20260506071206 | 18 | 111 | 1.6 | 3.2 | 0.00 | 0.00 | 0.00 | 69 | 1013.6 |
| 20260506070703 | 18 | 108 | 1.6 | 3.2 | 0.00 | 0.00 | 0.00 | 69 | 1013.7 |
| 20260506070200 | 18 | 125 | 1.6 | 3.2 | 0.00 | 0.00 | 0.00 | 69 | 1013.6 |
| 20260506062137 | 19 | 105 | 1.6 | 3.2 | 0.00 | 0.00 | 0.00 | 67 | 1013.9 |
| 20260506061633 | 19 | 131 | 1.6 | 4.8 | 0.00 | 0.00 | 0.00 | 67 | 1013.9 |
| 20260506061131 | 19 | 75 | 4.8 | 4.8 | 0.00 | 0.00 | 0.00 | 67 | 1013.9 |
| 20260506060629 | 19 | 116 | 3.2 | 3.2 | 0.00 | 0.00 | 0.00 | 66 | 1013.9 |
| 20260506060126 | 19 | 133 | 0.0 | 4.8 | 0.00 | 0.00 | 0.00 | 66 | 1013.8 |
| 20260506051058 | 20 | 67 | 0.0 | 4.8 | 0.00 | 0.00 | 0.00 | 63 | 1014.0 |
| 20260506050556 | 20 | 79 | 3.2 | 6.4 | 0.00 | 0.00 | 0.00 | 63 | 1014.3 |
| 20260506045046 | 20 | 60 | 1.6 | 3.2 | 0.00 | 0.00 | 0.00 | 62 | 1014.3 |
| 20260506044544 | 20 | 105 | 3.2 | 4.8 | 0.00 | 0.00 | 0.00 | 61 | 1014.4 |
| 20260506044040 | 20 | 81 | 3.2 | 4.8 | 0.00 | 0.00 | 0.00 | 60 | 1014.4 |
| 20260506043537 | 20 | 88 | 3.2 | 4.8 | 0.00 | 0.00 | 0.00 | 60 | 1014.5 |
| 20260506043036 | 20 | 78 | 4.8 | 4.8 | 0.00 | 0.00 | 0.00 | 59 | 1014.6 |
| 20260506042535 | 20 | 108 | 1.6 | 4.8 | 0.00 | 0.00 | 0.00 | 59 | 1014.7 |
| 20260506042032 | 21 | 94 | 3.2 | 3.2 | 0.00 | 0.00 | 0.00 | 58 | 1014.2 |
| 20260506041531 | 21 | 229 | 0.0 | 4.8 | 0.00 | 0.00 | 0.00 | 58 | 1014.6 |
| 20260506041027 | 21 | 87 | 3.2 | 3.2 | 0.00 | 0.00 | 0.00 | 58 | 1014.2 |
| 20260506040525 | 21 | 139 | 3.2 | 4.8 | 0.00 | 0.00 | 0.00 | 57 | 1014.4 |
| 20260506040021 | 21 | 66 | 3.2 | 4.8 | 0.00 | 0.00 | 0.00 | 57 | 1014.3 |
| 20260506035518 | 21 | 140 | 0.0 | 4.8 | 0.00 | 0.00 | 0.00 | 57 | 1014.2 |
| 20260506035014 | 21 | 125 | 3.2 | 4.8 | 0.00 | 0.00 | 0.00 | 58 | 1014.5 |
| 20260506034512 | 21 | 69 | 0.0 | 3.2 | 0.00 | 0.00 | 0.00 | 57 | 1014.4 |
| 20260506034009 | 21 | 158 | 3.2 | 4.8 | 0.00 | 0.00 | 0.00 | 56 | 1014.3 |
| 20260506033506 | 21 | 128 | 1.6 | 4.8 | 0.00 | 0.00 | 0.00 | 56 | 1014.3 |
| 20260506033004 | 21 | 132 | 3.2 | 3.2 | 0.00 | 0.00 | 0.00 | 56 | 1014.3 |
| 20260506032501 | 21 | 141 | 1.6 | 3.2 | 0.00 | 0.00 | 0.00 | 56 | 1014.4 |
| 20260506031956 | 21 | 109 | 1.6 | 3.2 | 0.00 | 0.00 | 0.00 | 55 | 1014.4 |
| 20260506031455 | 21 | 59 | 1.6 | 3.2 | 0.00 | 0.00 | 0.00 | 54 | 1014.4 |
| 20260506030952 | 21 | 71 | 0.0 | 3.2 | 0.00 | 0.00 | 0.00 | 54 | 1014.3 |
| 20260506030450 | 21 | 78 | 3.2 | 3.2 | 0.00 | 0.00 | 0.00 | 54 | 1014.2 |
| 20260506025946 | 21 | 121 | 3.2 | 3.2 | 0.00 | 0.00 | 0.00 | 54 | 1014.0 |
| 20260506025443 | 21 | 68 | 1.6 | 3.2 | 0.00 | 0.00 | 0.00 | 53 | 1014.2 |
| 20260506024940 | 21 | 65 | 1.6 | 4.8 | 0.00 | 0.00 | 0.00 | 53 | 1014.0 |
| 20260506024437 | 21 | 151 | 1.6 | 3.2 | 0.00 | 0.00 | 0.00 | 54 | 1014.1 |
| 20260506023932 | 21 | 130 | 0.0 | 4.8 | 0.00 | 0.00 | 0.00 | 54 | 1014.1 |
| 20260506023430 | 22 | 135 | 3.2 | 3.2 | 0.00 | 0.00 | 0.00 | 53 | 1014.2 |
| 20260506022926 | 22 | 176 | 0.0 | 3.2 | 0.00 | 0.00 | 0.00 | 53 | 1014.4 |
| 20260506022424 | 21 | 168 | 1.6 | 3.2 | 0.00 | 0.00 | 0.00 | 53 | 1014.4 |
| 20260506021922 | 22 | 100 | 1.6 | 4.8 | 0.00 | 0.00 | 0.00 | 52 | 1014.2 |
| 20260506021419 | 22 | 151 | 1.6 | 3.2 | 0.00 | 0.00 | 0.00 | 52 | 1014.3 |
| 20260506020916 | 22 | 119 | 1.6 | 3.2 | 0.00 | 0.00 | 0.00 | 52 | 1014.2 |
| 20260506020414 | 22 | 132 | 1.6 | 3.2 | 0.00 | 0.00 | 0.00 | 51 | 1014.4 |
| 20260506015910 | 22 | 127 | 1.6 | 3.2 | 0.00 | 0.00 | 0.00 | 51 | 1014.2 |
| 20260506015408 | 22 | 124 | 0.0 | 3.2 | 0.00 | 0.00 | 0.00 | 52 | 1014.0 |
| 20260506014904 | 22 | 148 | 1.6 | 3.2 | 0.00 | 0.00 | 0.00 | 52 | 1014.2 |
| 20260506014401 | 22 | 125 | 1.6 | 3.2 | 0.00 | 0.00 | 0.00 | 51 | 1014.1 |
| 20260506013858 | 22 | 149 | 0.0 | 4.8 | 0.00 | 0.00 | 0.00 | 51 | 1014.2 |
| 20260506013356 | 22 | 141 | 4.8 | 4.8 | 0.00 | 0.00 | 0.00 | 50 | 1013.9 |
| 20260506012852 | 22 | 194 | 0.0 | 3.2 | 0.00 | 0.00 | 0.00 | 50 | 1014.0 |
| 20260506012349 | 22 | 170 | 3.2 | 3.2 | 0.00 | 0.00 | 0.00 | 50 | 1014.0 |
| 20260506011846 | 22 | 128 | 3.2 | 4.8 | 0.00 | 0.00 | 0.00 | 49 | 1013.8 |
| 20260506011343 | 22 | 80 | 0.0 | 3.2 | 0.00 | 0.00 | 0.00 | 49 | 1013.9 |
| 20260506010840 | 22 | 161 | 3.2 | 3.2 | 0.00 | 0.00 | 0.00 | 48 | 1013.7 |
| 20260506010338 | 22 | 90 | 1.6 | 3.2 | 0.00 | 0.00 | 0.00 | 49 | 1013.6 |
| 20260506005835 | 23 | 172 | 3.2 | 3.2 | 0.00 | 0.00 | 0.00 | 48 | 1013.7 |
| 20260506005331 | 23 | 95 | 1.6 | 3.2 | 0.00 | 0.00 | 0.00 | 47 | 1013.5 |
| 20260506004827 | 23 | 163 | 3.2 | 3.2 | 0.00 | 0.00 | 0.00 | 48 | 1013.7 |
| 20260506004325 | 23 | 132 | 1.6 | 3.2 | 0.00 | 0.00 | 0.00 | 47 | 1013.4 |
| 20260506003821 | 23 | 96 | 0.0 | 3.2 | 0.00 | 0.00 | 0.00 | 46 | 1013.5 |
| 20260506003318 | 23 | 117 | 3.2 | 3.2 | 0.00 | 0.00 | 0.00 | 46 | 1013.5 |
| 20260506002814 | 23 | 131 | 1.6 | 3.2 | 0.00 | 0.00 | 0.00 | 46 | 1013.4 |
| 20260506002311 | 23 | 158 | 3.2 | 3.2 | 0.00 | 0.00 | 0.00 | 46 | 1013.3 |
| 20260506001806 | 23 | 158 | 0.0 | 3.2 | 0.00 | 0.00 | 0.00 | 45 | 1013.5 |
| 20260506001304 | 24 | 175 | 0.0 | 4.8 | 0.00 | 0.00 | 0.00 | 45 | 1013.1 |
| 20260506000801 | 24 | 94 | 1.6 | 3.2 | 0.00 | 0.00 | 0.00 | 44 | 1013.1 |
| 20260506000258 | 24 | 166 | 3.2 | 3.2 | 0.00 | 0.00 | 0.00 | 43 | 1013.1 |
| 20260505235755 | 24 | 213 | 0.0 | 3.2 | 0.00 | 0.00 | 0.00 | 42 | 1013.2 |
| 20260505235253 | 25 | 11 | 0.0 | 3.2 | 0.00 | 0.00 | 0.00 | 42 | 1013.0 |
| 20260505234749 | 25 | 110 | 1.6 | 3.2 | 0.00 | 0.00 | 0.00 | 42 | 1013.0 |
| 20260505234247 | 25 | 192 | 1.6 | 4.8 | 0.00 | 0.00 | 0.00 | 42 | 1012.9 |
| 20260505233743 | 25 | 141 | 0.0 | 4.8 | 0.00 | 0.00 | 0.00 | 41 | 1013.1 |
| 20260505233241 | 25 | 166 | 0.0 | 4.8 | 0.00 | 0.00 | 0.00 | 41 | 1013.2 |
| 20260505232738 | 25 | 184 | 0.0 | 3.2 | 0.00 | 0.00 | 0.00 | 40 | 1013.0 |
| 20260505232236 | 25 | 204 | 0.0 | 6.4 | 0.00 | 0.00 | 0.00 | 41 | 1013.2 |
| 20260505231732 | 25 | 144 | 1.6 | 3.2 | 0.00 | 0.00 | 0.00 | 40 | 1013.1 |
| 20260505231231 | 25 | 55 | 1.6 | 4.8 | 0.00 | 0.00 | 0.00 | 38 | 1013.3 |
| 20260505230729 | 25 | 153 | 0.0 | 3.2 | 0.00 | 0.00 | 0.00 | 39 | 1013.0 |
| 20260505230225 | 25 | 179 | 3.2 | 4.8 | 0.00 | 0.00 | 0.00 | 39 | 1013.1 |
| 20260505225722 | 25 | 183 | 3.2 | 3.2 | 0.00 | 0.00 | 0.00 | 37 | 1013.2 |
| 20260505225219 | 26 | 123 | 1.6 | 3.2 | 0.00 | 0.00 | 0.00 | 36 | 1013.2 |
| 20260505224714 | 26 | 249 | 0.0 | 4.8 | 0.00 | 0.00 | 0.00 | 36 | 1013.3 |
| 20260505224212 | 26 | 140 | 3.2 | 4.8 | 0.00 | 0.00 | 0.00 | 35 | 1013.2 |
| 20260505223710 | 26 | 154 | 3.2 | 3.2 | 0.00 | 0.00 | 0.00 | 34 | 1013.3 |
| 20260505223205 | 26 | 247 | 3.2 | 8.0 | 0.00 | 0.00 | 0.00 | 34 | 1013.1 |
| 20260505222701 | 26 | 160 | 4.8 | 4.8 | 0.00 | 0.00 | 0.00 | 33 | 1013.4 |
| 20260505222158 | 27 | 239 | 4.8 | 8.0 | 0.00 | 0.00 | 0.00 | 33 | 1013.2 |
| 20260505221655 | 27 | 250 | 0.0 | 8.0 | 0.00 | 0.00 | 0.00 | 33 | 1013.5 |
| 20260505221152 | 27 | 172 | 0.0 | 3.2 | 0.00 | 0.00 | 0.00 | 32 | 1013.3 |
| 20260505220649 | 27 | 220 | 6.4 | 6.4 | 0.00 | 0.00 | 0.00 | 32 | 1013.1 |
| 20260505220147 | 27 | 197 | 4.8 | 6.4 | 0.00 | 0.00 | 0.00 | 32 | 1013.1 |
| 20260505215644 | 27 | 67 | 3.2 | 6.4 | 0.00 | 0.00 | 0.00 | 34 | 1013.1 |
| 20260505215142 | 27 | 180 | 0.0 | 6.4 | 0.00 | 0.00 | 0.00 | 33 | 1013.3 |
| 20260505214640 | 27 | 85 | 3.2 | 3.2 | 0.00 | 0.00 | 0.00 | 32 | 1013.0 |
| 20260505214137 | 26 | 109 | 3.2 | 4.8 | 0.00 | 0.00 | 0.00 | 31 | 1013.1 |
| 20260505213634 | 26 | 125 | 0.0 | 8.0 | 0.00 | 0.00 | 0.00 | 33 | 1012.9 |
| 20260505213131 | 26 | 211 | 0.0 | 4.8 | 0.00 | 0.00 | 0.00 | 31 | 1013.3 |
| 20260505212626 | 27 | 142 | 1.6 | 4.8 | 0.00 | 0.00 | 0.00 | 31 | 1012.9 |
| 20260505212125 | 27 | 73 | 3.2 | 6.4 | 0.00 | 0.00 | 0.00 | 32 | 1013.0 |
| 20260505211621 | 27 | 239 | 0.0 | 4.8 | 0.00 | 0.00 | 0.00 | 31 | 1012.9 |
| 20260505211118 | 27 | 266 | 3.2 | 4.8 | 0.00 | 0.00 | 0.00 | 31 | 1013.1 |
| 20260505210615 | 27 | 74 | 3.2 | 4.8 | 0.00 | 0.00 | 0.00 | 30 | 1013.0 |
| 20260505210112 | 27 | 202 | 1.6 | 6.4 | 0.00 | 0.00 | 0.00 | 33 | 1013.1 |
| 20260505205609 | 28 | 158 | 3.2 | 3.2 | 0.00 | 0.00 | 0.00 | 31 | 1012.7 |
| 20260505205107 | 27 | 9 | 0.0 | 4.8 | 0.00 | 0.00 | 0.00 | 30 | 1012.7 |
| 20260505204604 | 27 | 198 | 0.0 | 8.0 | 0.00 | 0.00 | 0.00 | 30 | 1012.9 |
| 20260505204101 | 27 | 78 | 0.0 | 8.0 | 0.00 | 0.00 | 0.00 | 32 | 1012.8 |
| 20260505203558 | 27 | 263 | 0.0 | 4.8 | 0.00 | 0.00 | 0.00 | 31 | 1012.7 |
| 20260505203055 | 27 | 55 | 3.2 | 4.8 | 0.00 | 0.00 | 0.00 | 29 | 1012.7 |
| 20260505202551 | 28 | 69 | 4.8 | 8.0 | 0.00 | 0.00 | 0.00 | 33 | 1012.7 |
| 20260505202047 | 28 | 226 | 1.6 | 4.8 | 0.00 | 0.00 | 0.00 | 30 | 1012.8 |
| 20260505201544 | 28 | 251 | 1.6 | 4.8 | 0.00 | 0.00 | 0.00 | 29 | 1012.9 |
| 20260505201042 | 28 | 155 | 1.6 | 3.2 | 0.00 | 0.00 | 0.00 | 29 | 1012.7 |
| 20260505200539 | 28 | 187 | 0.0 | 3.2 | 0.00 | 0.00 | 0.00 | 29 | 1012.9 |
| 20260505200036 | 28 | 13 | 0.0 | 3.2 | 0.00 | 0.00 | 0.00 | 29 | 1013.0 |
| 20260505195532 | 29 | 133 | 3.2 | 3.2 | 0.00 | 0.00 | 0.00 | 28 | 1013.2 |
| 20260505195030 | 29 | 96 | 0.0 | 6.4 | 0.00 | 0.00 | 0.00 | 28 | 1012.9 |
| 20260505194527 | 29 | 227 | 3.2 | 6.4 | 0.00 | 0.00 | 0.00 | 29 | 1013.2 |
| 20260505194022 | 29 | 83 | 3.2 | 9.7 | 0.00 | 0.00 | 0.00 | 28 | 1013.2 |
| 20260505193520 | 29 | 232 | 3.2 | 6.4 | 0.00 | 0.00 | 0.00 | 29 | 1013.3 |
| 20260505193017 | 29 | 244 | 0.0 | 4.8 | 0.00 | 0.00 | 0.00 | 28 | 1013.2 |
| 20260505192515 | 29 | 167 | 3.2 | 4.8 | 0.00 | 0.00 | 0.00 | 28 | 1013.3 |
| 20260505192012 | 30 | 25 | 0.0 | 4.8 | 0.00 | 0.00 | 0.00 | 29 | 1013.3 |
| 20260505191510 | 30 | 199 | 1.6 | 4.8 | 0.00 | 0.00 | 0.00 | 29 | 1013.5 |
| 20260505191009 | 30 | 152 | 0.0 | 4.8 | 0.00 | 0.00 | 0.00 | 29 | 1013.7 |
| 20260505190503 | 29 | 350 | 3.2 | 6.4 | 0.00 | 0.00 | 0.00 | 29 | 1013.5 |
| 20260505185958 | 29 | 115 | 0.0 | 6.4 | 0.00 | 0.00 | 0.00 | 27 | 1013.6 |
| 20260505185456 | 30 | 5 | 3.2 | 8.0 | 0.00 | 0.00 | 0.00 | 29 | 1013.7 |
| 20260505184952 | 29 | 89 | 1.6 | 4.8 | 0.00 | 0.00 | 0.00 | 28 | 1013.9 |
| 20260505184449 | 29 | 192 | 1.6 | 3.2 | 0.00 | 0.00 | 0.00 | 28 | 1014.1 |
| 20260505183945 | 28 | 186 | 3.2 | 6.4 | 0.00 | 0.00 | 0.00 | 29 | 1013.8 |
| 20260505183442 | 28 | 126 | 4.8 | 8.0 | 0.00 | 0.00 | 0.00 | 30 | 1014.3 |
| 20260505182939 | 28 | 160 | 4.8 | 9.7 | 0.00 | 0.00 | 0.00 | 30 | 1014.1 |
| 20260505182436 | 28 | 264 | 3.2 | 6.4 | 0.00 | 0.00 | 0.00 | 28 | 1014.4 |
| 20260505181932 | 28 | 100 | 1.6 | 6.4 | 0.00 | 0.00 | 0.00 | 28 | 1014.2 |
| 20260505181430 | 28 | 136 | 1.6 | 8.0 | 0.00 | 0.00 | 0.00 | 31 | 1014.5 |
| 20260505180927 | 28 | 272 | 0.0 | 9.7 | 0.00 | 0.00 | 0.00 | 32 | 1014.3 |
| 20260505180423 | 28 | 221 | 0.0 | 9.7 | 0.00 | 0.00 | 0.00 | 31 | 1014.3 |
| 20260505175920 | 28 | 168 | 0.0 | 6.4 | 0.00 | 0.00 | 0.00 | 32 | 1014.6 |
| 20260505175416 | 27 | 104 | 0.0 | 6.4 | 0.00 | 0.00 | 0.00 | 31 | 1014.6 |
| 20260505174912 | 27 | 33 | 1.6 | 6.4 | 0.00 | 0.00 | 0.00 | 31 | 1014.7 |
| 20260505174410 | 27 | 288 | 4.8 | 4.8 | 0.00 | 0.00 | 0.00 | 30 | 1014.9 |
| 20260505173906 | 27 | 195 | 0.0 | 4.8 | 0.00 | 0.00 | 0.00 | 37 | 1014.6 |
| 20260505173402 | 27 | 94 | 3.2 | 6.4 | 0.00 | 0.00 | 0.00 | 34 | 1014.6 |
| 20260505172859 | 27 | 250 | 1.6 | 4.8 | 0.00 | 0.00 | 0.00 | 35 | 1014.9 |
| 20260505172357 | 27 | 77 | 1.6 | 3.2 | 0.00 | 0.00 | 0.00 | 37 | 1014.8 |
| 20260505171857 | 27 | 130 | 3.2 | 6.4 | 0.00 | 0.00 | 0.00 | 39 | 1014.9 |
| 20260505171354 | 27 | 240 | 4.8 | 6.4 | 0.00 | 0.00 | 0.00 | 39 | 1014.9 |
| 20260505170850 | 27 | 184 | 0.0 | 4.8 | 0.00 | 0.00 | 0.00 | 39 | 1015.0 |
| 20260505170348 | 27 | 145 | 3.2 | 6.4 | 0.00 | 0.00 | 0.00 | 37 | 1015.2 |
| 20260505165842 | 26 | 333 | 1.6 | 3.2 | 0.00 | 0.00 | 0.00 | 39 | 1015.2 |
| 20260505165338 | 26 | 143 | 6.4 | 6.4 | 0.00 | 0.00 | 0.00 | 38 | 1015.2 |
| 20260505164834 | 26 | 174 | 1.6 | 6.4 | 0.00 | 0.00 | 0.00 | 39 | 1015.3 |
| 20260505164331 | 26 | 76 | 3.2 | 4.8 | 0.00 | 0.00 | 0.00 | 40 | 1015.4 |
| 20260505163829 | 26 | 165 | 3.2 | 6.4 | 0.00 | 0.00 | 0.00 | 40 | 1015.2 |
| 20260505163328 | 26 | 101 | 1.6 | 6.4 | 0.00 | 0.00 | 0.00 | 42 | 1015.2 |
| 20260505162826 | 26 | 13 | 0.0 | 4.8 | 0.00 | 0.00 | 0.00 | 39 | 1015.6 |
| 20260505162322 | 26 | 349 | 0.0 | 4.8 | 0.00 | 0.00 | 0.00 | 40 | 1015.3 |
| 20260505161819 | 26 | 140 | 0.0 | 3.2 | 0.00 | 0.00 | 0.00 | 42 | 1015.5 |
| 20260505161316 | 26 | 148 | 3.2 | 6.4 | 0.00 | 0.00 | 0.00 | 43 | 1015.7 |